Погода в Большом Куглануре

Россия / Республика Марий Эл     57°04′32″N   48°16′22″E
темп.,
°C
ветер,
м/с
пор.,
м/с
влажн.,
%
обл.,
%
осадки,
мм/ч
давл.,
гПа
погр.,
м
8 мая, сб
сб800:00+7зсз248990 0.4 1016221
03:00+5сз229490 0.4 101735
06:00+7с2285100 0.0 1018152
09:00+11всв33623 0.0 1018863
12:00+14в33465 0.0 10171476
15:00+15в34473 0.0 10161668
18:00+12вюв4667100 0.0 1015377
21:00+9юв498950 0.0 1015172
9 мая, вс
вс900:00+8юв4119293 0.0 1013226
03:00+10юв61580100 0.0 1012421
06:00+11ююв61377100 0.0 1011369
09:00+16ю71161100 0.0 1011748
12:00+19ююв7951100 0.0 10111134
15:00+18ююв61157100 0.0 1011716
18:00+17ююв61361100 0.0 1011505
21:00+14ююз31087100 1.1 1013307
10 мая, пн
пн1000:00+13ююз4895100 2.4 1014326
03:00+10зюз3695100 2.5 1017291
06:00+9з4692100 0.1 1020435
09:00+7зсз4692100 1.4 1022414
12:00+9сз4688100 0.9 1024608
15:00+10с5678100 1.0 1026914
18:00+9с588089 0.0 1028695
21:00+5ссв39900 0.0 1029183
11 мая, вт
вт1100:00+4ссв38920 0.0 1030159
03:00+4св38910 0.0 1031163
06:00+6св49805 0.0 1032287
09:00+12св565613 0.0 1033759
12:00+15св454653 0.0 10321025
15:00+16всв444333 0.0 10311133
18:00+15всв245927 0.0 103189
21:00+10в336615 0.0 103219
12 мая, ср
ср1200:00+9в3368100 0.0 103227
03:00+8в337271 0.0 103232
06:00+10в35715 0.0 1032139
09:00+16в34515 0.0 1032601
12:00+19вюв34415 0.0 10311000
15:00+20вюв34417 0.0 10301065
18:00+18в366116 0.0 1029149
21:00+14в336930 0.0 102939